Date,TemperatureHighF,TemperatureAvgF,TemperatureLowF,DewpointHighF,DewpointAvgF,DewpointLowF,HumidityHigh,HumidityAvg,HumidityLow,PressureMaxIn,PressureMinIn,WindSpeedMaxMPH,WindSpeedAvgMPH,GustSpeedMaxMPH,PrecipitationSumIn
2013-2-13,66.0,63.7,62.0,62.0,56.5,51.0,98,78,56,29.93,29.77,25,20,0,0.00
2013-2-14,68.0,63.4,58.0,65.0,58.0,51.0,93,82,77,30.08,29.96,37,21,0,0.00
2013-2-15,78.0,73.2,69.0,71.0,69.1,63.0,94,87,73,30.09,29.98,21,8,0,0.00
2013-2-16,79.0,77.5,74.0,73.0,70.5,68.0,84,79,73,30.07,29.92,31,14,0,0.00
2013-2-17,79.0,77.6,76.0,74.0,70.6,69.0,84,79,73,30.11,30.00,32,25,0,0.00
2013-2-18,79.0,77.8,75.0,73.0,70.4,67.0,94,78,67,30.21,30.05,37,21,0,0.00
2013-2-21,83.0,79.4,78.0,72.0,70.4,69.0,79,74,66,30.13,30.01,26,21,0,0.00
2013-2-22,81.0,78.4,75.0,73.0,69.4,67.0,91,74,68,30.17,30.03,20,14,0,0.00
2013-2-23,81.0,79.0,78.0,69.0,67.5,65.0,74,68,59,30.16,30.07,26,15,0,0.00
2013-2-24,81.0,78.2,75.0,73.0,69.2,67.0,91,73,68,30.14,30.01,23,11,0,0.00
2013-2-25,84.0,77.9,72.0,76.0,68.0,64.0,92,71,56,30.09,29.91,16,10,0,0.00
2013-2-26,84.0,76.4,72.0,69.0,66.1,63.0,91,71,48,30.14,30.00,14,9,0,0.00
2013-2-27,77.0,77.0,77.0,72.0,72.0,72.0,84,84,84,29.94,29.94,7,7,0,0.00
2013-2-28,78.0,75.7,72.0,69.0,69.0,69.0,91,80,73,30.01,29.91,21,15,0,0.00
2013-3-1,76.0,76.0,76.0,70.0,70.0,70.0,81,81,81,30.00,30.00,7,7,0,0.00
2013-3-5,77.0,76.0,75.0,67.0,67.0,67.0,76,74,71,30.12,30.06,17,16,0,0.00
2013-3-6,78.0,77.1,75.0,70.0,66.0,63.0,83,68,62,30.14,30.01,13,11,0,0.00
2013-3-7,80.0,78.2,77.0,72.0,71.5,71.0,84,80,74,30.09,30.00,13,9,0,0.00
2013-3-8,78.0,77.1,75.0,71.0,67.8,63.0,83,73,60,30.11,30.00,16,11,0,0.00
2013-3-9,78.0,77.5,77.0,68.0,66.8,65.0,73,70,67,30.09,30.05,17,9,0,0.00
2013-3-10,77.0,77.0,77.0,65.0,64.4,64.0,67,65,64,30.08,30.05,18,14,0,0.00
2013-3-11,77.0,76.0,75.0,62.0,61.5,61.0,62,61,60,30.03,29.96,20,18,0,0.00
2013-3-12,78.0,76.0,73.0,65.0,62.5,60.0,75,62,56,30.13,30.00,14,13,0,0.00
2013-3-13,77.0,75.0,73.0,67.0,62.7,59.0,76,66,53,30.09,29.95,21,16,0,0.00
2013-3-14,78.0,77.6,75.0,67.0,61.1,59.0,76,57,52,30.07,29.94,15,11,0,0.00
2013-3-15,79.0,78.0,77.0,62.0,59.5,58.0,56,52,48,30.09,30.04,11,10,0,0.00
2013-3-16,78.0,77.5,77.0,66.0,64.5,63.0,66,64,63,30.11,30.08,9,6,0,0.00
2013-3-17,79.0,78.0,77.0,68.0,68.0,68.0,73,71,69,30.14,30.13,23,22,0,0.00
2013-3-18,81.0,78.0,77.0,69.0,68.2,67.0,77,72,65,30.14,30.11,23,17,0,0.00
2013-3-19,79.0,77.9,77.0,71.0,70.6,70.0,77,76,75,30.09,30.04,16,13,0,0.00
2013-3-20,80.0,78.4,77.0,72.0,71.0,70.0,84,78,75,30.03,29.91,20,16,0,0.00
2013-3-21,80.0,79.2,78.0,72.0,70.8,70.0,78,75,71,30.03,29.96,20,16,0,0.00
2013-3-22,81.0,79.8,78.0,76.0,74.5,74.0,87,84,82,30.09,30.03,15,12,0,0.00
2013-3-23,80.0,79.2,79.0,75.0,74.0,73.0,87,83,79,30.11,30.07,15,10,0,0.00
2013-3-24,80.0,79.2,79.0,73.0,72.3,72.0,81,79,78,30.08,30.01,16,12,0,0.00
2013-3-25,80.0,79.7,79.0,74.0,71.7,70.0,84,78,72,30.04,29.97,20,17,0,0.00
2013-3-26,81.0,79.4,77.0,74.0,73.1,72.0,91,81,73,30.09,29.95,17,12,0,0.00
2013-3-27,79.0,78.5,78.0,72.0,72.0,72.0,80,78,77,30.09,30.06,15,12,0,0.00
2013-3-28,80.0,79.3,79.0,71.0,70.7,70.0,74,74,73,30.09,30.07,15,10,0,0.00
2013-3-29,79.0,76.9,75.0,72.0,69.6,68.0,83,79,73,30.13,30.08,26,19,0,0.00
2013-3-30,76.0,76.0,76.0,71.0,69.5,68.0,82,78,75,30.14,30.14,20,19,0,0.00
2013-4-1,81.0,79.7,79.0,73.0,72.1,70.0,81,76,72,30.16,30.11,24,20,0,0.00
2013-4-2,82.0,79.8,77.0,74.0,73.2,72.0,84,80,75,30.12,30.09,26,18,0,0.00
2013-4-3,75.0,74.7,74.0,68.0,67.4,67.0,79,77,76,30.16,30.10,17,14,0,0.00
2013-4-4,76.0,74.3,73.0,69.0,67.7,67.0,82,79,78,30.17,29.96,26,18,0,0.00
2013-4-5,77.0,63.8,53.0,68.0,57.2,47.0,89,79,70,30.02,29.80,28,20,0,0.00
2013-4-6,65.0,56.6,52.0,49.0,45.7,37.0,86,71,35,30.27,30.09,18,8,0,0.00
2013-4-7,71.0,62.0,55.0,60.0,54.5,52.0,94,79,52,30.29,30.20,7,4,0,0.00
2013-4-8,62.0,61.0,60.0,59.0,58.5,58.0,93,92,90,30.23,30.19,3,2,0,0.00
2013-4-26,68.0,67.5,67.0,56.0,53.5,51.0,67,60,53,30.39,30.37,18,16,0,0.00
2013-4-27,70.0,68.2,67.0,64.0,61.8,58.0,84,79,71,30.34,30.23,20,16,0,0.00
2013-4-28,77.0,75.7,74.0,65.0,64.3,64.0,70,68,66,30.20,30.09,20,20,0,0.00
2013-4-29,78.0,78.0,78.0,69.0,67.3,66.0,76,72,68,30.06,30.06,23,21,0,0.00
2013-4-30,83.0,82.0,81.0,73.0,73.0,73.0,77,74,71,30.02,30.01,9,6,0,0.00
2013-5-1,81.0,78.2,74.0,73.0,72.0,71.0,92,82,75,30.02,30.01,11,8,0,0.00
2013-5-2,79.0,77.0,75.0,72.0,70.5,69.0,80,80,79,29.95,29.91,11,7,0,0.00
2013-5-3,80.0,78.2,77.0,71.0,68.8,65.0,78,73,67,29.88,29.83,10,7,0,0.00
2013-5-4,78.0,77.3,76.0,70.0,68.8,67.0,78,76,71,29.90,29.77,15,10,0,0.00
2013-5-5,78.0,77.4,77.0,70.0,70.0,70.0,79,78,77,29.96,29.85,7,5,0,0.00
2013-5-6,78.0,77.0,76.0,72.0,70.2,67.0,84,79,72,30.04,29.96,7,6,0,0.00
2013-5-7,75.0,74.3,74.0,68.0,63.7,62.0,77,69,66,30.06,30.03,21,10,0,0.00
2013-5-8,76.0,75.7,75.0,69.0,63.7,60.0,82,67,57,30.18,30.10,16,9,0,0.00
2013-5-9,79.0,78.0,77.0,73.0,70.5,67.0,82,77,69,30.20,30.17,17,10,0,0.00
2013-5-10,81.0,80.0,79.0,74.0,72.2,70.0,86,78,69,30.18,30.15,20,12,0,0.00
2013-5-11,83.0,80.0,78.0,70.0,68.8,68.0,75,68,59,30.17,30.12,11,8,0,0.00
2013-5-12,85.0,80.5,78.0,69.0,67.5,65.0,74,64,50,30.15,30.10,5,3,0,0.00
2013-5-13,81.0,79.7,78.0,69.0,68.7,68.0,70,68,67,30.17,30.10,16,7,0,0.00
2013-5-14,78.0,75.8,75.0,67.0,56.7,53.0,68,51,45,30.24,30.15,37,-293,0,0.00
2013-5-15,74.0,73.1,72.0,58.0,57.6,57.0,60,57,54,30.27,30.21,14,-410,0,0.00
2013-5-16,73.0,57.4,72.0,60.0,25.0,-99.9,63,59,57,30.24,30.19,11,8,0,0.00
2013-5-17,76.0,69.7,72.0,63.0,53.3,-99.9,75,66,63,30.24,30.12,13,7,0,0.00
2013-5-18,75.0,74.5,74.0,69.0,67.0,64.0,83,76,67,30.25,30.15,15,10,0,0.00
2013-5-19,75.0,74.2,74.0,67.0,65.0,63.0,79,73,69,30.26,30.21,14,12,0,0.00
2013-5-20,77.0,76.2,76.0,72.0,68.5,66.0,84,77,72,30.22,30.12,22,18,0,0.00
2013-5-21,78.0,76.5,75.0,72.0,68.2,65.0,83,76,71,30.12,30.11,26,18,0,0.00
2013-5-22,76.0,74.7,72.0,72.0,71.2,69.0,95,88,78,30.05,29.94,23,20,0,0.00
2013-5-23,84.0,81.3,79.0,77.0,74.1,71.0,79,78,77,30.05,29.94,20,14,0,0.00
2013-5-24,80.0,80.0,80.0,71.0,71.0,71.0,74,74,74,30.11,30.11,8,8,0,0.00
2013-5-25,87.0,84.2,82.0,69.0,66.2,64.0,55,54,53,30.16,30.15,10,10,0,0.00
2013-5-26,84.0,81.5,80.0,69.0,67.0,62.0,67,62,47,30.19,30.15,20,15,0,0.00
2013-5-27,83.0,80.5,79.0,74.0,71.0,69.0,85,73,65,30.18,30.11,17,14,0,0.00
2013-5-28,80.0,78.5,78.0,74.0,73.5,73.0,88,85,84,30.12,30.07,14,11,0,0.00
2013-5-29,79.0,77.5,76.0,75.0,73.4,73.0,95,87,81,30.10,30.00,16,-294,0,0.00
2013-5-30,80.0,77.2,75.0,74.0,72.5,72.0,95,85,79,30.20,30.03,29,-383,0,0.00
2013-5-31,82.0,79.7,77.0,73.0,70.7,69.0,88,75,66,30.23,30.22,7,-664,0,0.00
2013-6-1,83.0,79.2,76.0,71.0,69.8,67.0,82,73,58,30.19,30.15,8,-496,0,0.00
2013-6-2,81.0,78.5,77.0,74.0,72.5,71.0,87,81,73,30.13,30.01,15,8,0,0.00
2013-6-3,80.0,78.8,78.0,77.0,76.0,75.0,95,91,85,29.99,29.97,18,12,0,0.00
2013-6-4,81.0,79.0,78.0,76.0,74.7,74.0,88,86,85,30.03,30.00,15,11,0,0.00
2013-6-5,80.0,79.5,79.0,74.0,73.5,73.0,84,83,82,30.04,30.00,16,11,0,0.00
2013-6-6,80.0,79.7,79.0,75.0,73.7,72.0,86,83,81,30.00,29.81,28,21,0,0.00
2013-6-7,80.0,80.0,80.0,75.0,75.0,75.0,82,82,82,29.96,29.96,22,22,0,0.00
2013-6-8,80.0,79.2,78.0,76.0,74.5,74.0,86,85,84,30.09,29.98,17,16,0,0.00
2013-6-9,80.0,79.4,79.0,76.0,74.1,73.0,90,84,78,30.14,30.13,17,9,0,0.00
2013-6-10,81.0,80.1,79.0,77.0,76.3,76.0,89,88,85,30.13,30.05,21,18,0,0.00
2013-6-11,82.0,81.5,81.0,78.0,77.5,77.0,87,87,87,30.05,30.03,20,16,0,0.00
2013-6-12,83.0,81.5,80.0,78.0,77.1,76.0,88,85,82,30.04,30.02,16,14,0,0.00
2013-6-13,84.0,82.8,81.0,78.0,77.2,76.0,86,83,78,29.98,29.87,25,19,0,0.00
2013-6-14,82.0,80.7,80.0,77.0,71.7,67.0,84,74,64,30.00,29.81,27,18,0,0.00
2013-6-15,76.0,76.0,76.0,67.0,67.0,67.0,73,73,73,30.10,30.10,6,6,0,0.00
2013-6-19,87.0,80.6,74.0,73.0,71.9,71.0,94,76,58,30.07,30.03,7,6,0,0.00
2013-6-20,75.0,74.7,74.0,73.0,72.1,71.0,93,91,89,30.19,30.11,25,15,0,0.00
2013-6-22,77.0,77.0,77.0,73.0,73.0,73.0,86,86,86,30.19,30.19,12,12,0,0.00
2013-6-23,79.0,78.0,77.0,75.0,74.0,73.0,87,87,87,30.25,30.22,14,11,0,0.00
2013-6-24,82.0,82.0,82.0,76.0,76.0,76.0,81,81,81,30.27,30.27,12,12,0,0.00
2013-6-25,78.0,78.0,78.0,75.0,75.0,75.0,88,88,88,30.21,30.21,8,8,0,0.00
2013-6-26,80.0,80.0,80.0,76.0,75.5,75.0,88,87,86,30.11,30.09,15,12,0,0.00
2013-6-27,81.0,78.0,73.0,78.0,74.5,69.0,90,88,87,30.06,29.90,23,21,0,0.00
2013-6-28,81.0,81.0,81.0,78.0,77.0,76.0,88,86,85,29.79,29.78,28,26,0,0.00
2013-6-29,81.0,80.3,80.0,76.0,75.8,73.0,89,86,80,29.81,29.75,31,26,0,0.00
2013-6-30,79.0,79.0,79.0,76.0,76.0,76.0,89,89,89,29.82,29.82,3,3,0,0.00
2013-7-13,83.0,80.8,79.0,76.0,73.5,68.0,87,78,69,30.29,30.12,35,21,0,0.00
2013-7-14,78.0,78.0,78.0,77.0,76.5,76.0,97,95,93,30.36,30.30,14,11,0,0.00
2013-7-15,80.0,79.0,78.0,76.0,75.2,74.0,94,89,82,30.38,30.29,8,5,0,0.00
2013-7-16,83.0,80.9,80.0,77.0,75.6,75.0,86,84,79,30.27,30.23,13,8,0,0.00
2013-7-17,83.0,80.6,79.0,77.0,74.0,72.0,81,81,80,30.22,30.18,3,1,0,0.00
2013-7-18,82.0,82.0,82.0,77.0,77.0,77.0,83,83,83,30.18,30.18,8,8,0,0.00
2013-7-19,81.0,81.0,81.0,75.0,75.0,75.0,81,81,81,30.10,30.10,8,8,0,0.00
2013-7-20,82.0,81.2,80.0,76.0,75.2,75.0,85,81,78,30.13,30.05,25,25,0,0.00
2013-7-21,82.0,80.7,79.0,76.0,75.0,74.0,92,84,80,30.11,30.00,23,21,0,0.00
2013-8-25,73.0,73.0,73.0,57.0,56.5,56.0,57,56,55,30.42,30.35,16,14,0,0.00
2013-8-26,79.0,77.5,74.0,67.0,62.8,60.0,69,60,53,30.33,30.19,15,10,0,0.00
2013-8-27,79.0,79.0,79.0,66.0,63.3,61.0,63,58,53,30.19,30.16,7,4,0,0.00
2013-8-31,83.0,79.7,75.0,76.0,75.3,75.0,99,87,78,30.04,30.01,8,4,0,0.00
2013-9-1,83.0,82.5,82.0,78.0,77.5,77.0,87,84,81,30.03,29.97,22,13,0,0.00
2013-9-2,83.0,82.5,82.0,77.0,76.8,76.0,85,83,79,29.98,29.95,23,13,0,0.00
2013-9-3,82.0,81.8,81.0,77.0,75.8,74.0,85,81,76,29.96,29.93,16,15,0,0.00
2013-9-4,83.0,82.5,82.0,77.0,76.0,75.0,83,81,78,30.10,30.00,17,10,0,0.00
2013-9-5,82.0,81.5,81.0,78.0,77.5,77.0,86,86,85,30.12,30.11,8,6,0,0.00
2013-9-10,83.0,83.0,83.0,72.0,72.0,72.0,68,68,68,30.24,30.24,17,17,0,0.00
2013-9-11,83.0,83.0,83.0,74.0,73.0,72.0,75,72,69,30.17,30.08,16,13,0,0.00
2013-9-12,85.0,82.5,80.0,77.0,75.0,73.0,81,78,74,30.08,29.98,11,10,0,0.00
2013-9-13,84.0,83.5,83.0,77.0,74.2,73.0,78,73,68,29.98,29.91,9,6,0,0.00
2013-9-14,85.0,83.0,81.0,75.0,74.0,73.0,77,74,70,30.01,29.94,5,3,0,0.00
2013-9-15,85.0,84.5,84.0,77.0,75.5,74.0,78,74,70,30.06,30.06,14,12,0,0.00
2013-9-16,85.0,84.5,84.0,77.0,76.5,76.0,75,75,75,30.12,30.09,14,10,0,0.00
2013-9-17,84.0,82.2,79.0,75.0,73.8,72.0,86,76,68,30.11,30.02,20,12,0,0.00
2013-9-18,80.0,80.0,80.0,75.0,74.5,74.0,84,83,82,30.06,30.05,17,16,0,0.00
2013-9-19,90.0,82.0,78.0,75.0,74.0,73.0,88,77,58,30.07,30.06,15,9,0,0.00
2013-9-20,83.0,81.5,80.0,74.0,71.8,70.0,79,72,63,30.08,29.97,10,8,0,0.00
2013-9-21,84.0,82.2,79.0,75.0,73.8,73.0,86,75,69,29.94,29.90,20,10,0,0.00
2013-9-22,83.0,81.8,80.0,76.0,75.0,74.0,86,80,75,29.90,29.87,14,13,0,0.00
2013-9-23,79.0,77.5,76.0,72.0,68.5,65.0,79,73,67,29.99,29.91,21,16,0,0.00
2013-9-30,78.0,75.4,72.0,60.0,58.9,58.0,64,55,49,30.11,30.09,6,4,0,0.00
2013-11-5,64.0,63.5,63.0,61.0,58.5,56.0,88,83,78,30.38,30.34,29,22,0,0.00
2013-11-6,70.0,69.5,69.0,69.0,66.8,65.0,97,91,88,30.32,30.20,39,23,0,0.00
2013-11-7,77.0,72.8,69.0,70.0,66.8,65.0,90,82,73,30.10,30.01,22,19,0,0.00
2013-11-8,64.0,58.0,54.0,51.0,42.5,37.0,63,57,44,30.30,30.04,40,29,0,0.00
2013-11-9,59.0,58.5,58.0,48.0,43.0,38.0,69,58,46,30.35,30.31,17,16,0,0.00